Date,TemperatureHighF,TemperatureAvgF,TemperatureLowF,DewpointHighF,DewpointAvgF,DewpointLowF,HumidityHigh,HumidityAvg,HumidityLow,PressureMaxIn,PressureMinIn,WindSpeedMaxMPH,WindSpeedAvgMPH,GustSpeedMaxMPH,PrecipitationSumIn
2013-3-1,35.2,24.6,12.6,14.8,9.4,-0.4,73,53,40,30.27,30.10,10,4,14,0.00
2013-3-2,35.1,19.1,3.0,11.0,-1.2,-15.1,69,41,28,30.27,30.13,10,3,13,0.00
2013-3-3,42.3,18.6,-2.2,11.7,-5.9,-23.2,57,34,19,30.16,30.01,4,0,6,0.00
2013-3-4,32.2,23.3,10.8,18.1,8.1,-8.9,70,52,40,30.07,29.98,12,4,15,0.03
2013-3-5,32.5,26.9,24.3,23.7,20.8,17.8,90,78,63,30.13,29.92,10,5,15,0.00
2013-3-6,36.3,24.7,7.0,19.3,12.8,-3.0,77,61,43,30.30,30.13,10,4,15,0.00
2013-3-7,46.8,22.2,-1.5,19.4,5.4,-11.0,74,51,31,30.39,30.30,5,1,7,0.12
2013-3-8,44.1,27.8,6.1,21.8,13.4,-2.2,71,56,39,30.42,30.19,14,3,21,0.11
2013-3-9,41.0,36.1,30.0,37.8,30.4,21.4,98,80,62,30.19,29.68,12,5,20,0.58
2013-3-10,37.8,36.0,32.7,37.1,35.3,32.2,98,97,94,29.80,29.65,12,4,17,0.74
2013-3-11,35.4,31.2,27.1,32.2,27.1,21.1,98,85,73,29.74,29.57,9,1,11,0.03
2013-3-12,42.3,27.9,21.6,23.4,16.7,9.0,88,64,40,30.04,29.71,10,4,15,0.02
2013-3-13,35.8,23.8,13.1,13.8,6.4,-0.7,79,50,30,30.30,30.04,12,5,18,0.00
2013-3-14,44.8,25.4,9.7,25.1,14.3,-1.8,84,63,44,30.27,30.01,12,2,16,0.00
2013-3-15,39.7,32.4,26.6,32.4,28.0,22.4,98,84,69,30.01,29.77,9,2,13,0.02
2013-3-16,36.1,25.7,18.0,26.6,14.5,5.4,91,64,42,30.16,29.80,10,1,14,0.00
2013-3-17,33.8,22.8,10.8,11.5,5.7,-2.6,66,48,34,30.25,29.95,10,5,14,0.00
2013-3-18,38.1,23.0,14.0,26.9,14.4,3.5,83,70,53,29.95,29.51,14,4,22,0.00
2013-3-19,31.6,19.4,9.7,6.0,2.1,-3.7,65,48,33,30.04,29.68,16,8,25,0.00
2013-3-20,27.0,14.2,1.2,1.3,-5.2,-15.7,46,41,34,30.10,30.01,15,6,20,0.00
2013-3-21,36.0,16.5,-1.3,8.9,-4.0,-18.0,59,40,31,30.07,29.98,10,3,13,0.00
2013-3-22,47.7,25.0,2.5,15.3,2.6,-13.2,66,39,25,30.07,29.98,4,1,5,0.02
2013-3-23,53.6,32.3,12.6,21.0,11.4,3.3,72,44,26,30.13,29.98,6,1,7,0.06
2013-3-24,36.7,31.1,28.4,24.0,18.3,12.7,75,59,51,30.04,29.80,11,5,15,0.04
2013-3-25,37.8,31.2,21.2,20.7,15.4,11.2,75,52,43,30.13,29.86,12,7,16,0.02
2013-3-26,46.6,34.6,26.2,20.8,15.2,11.7,58,45,33,30.25,30.10,9,4,15,0.00
2013-3-27,53.6,36.7,22.8,21.5,15.8,9.9,59,44,27,30.30,30.22,7,2,9,0.00
2013-3-28,58.1,36.2,16.2,23.9,14.3,7.9,73,45,19,30.33,30.22,6,1,7,0.00
2013-3-29,57.6,37.6,17.4,25.8,16.9,10.2,77,47,22,30.33,30.16,6,1,8,0.00
2013-3-30,53.8,42.0,30.9,43.1,29.9,19.2,98,65,39,30.16,29.77,9,3,15,0.19
2013-3-31,48.0,37.3,29.3,38.7,26.8,9.5,98,69,40,29.92,29.68,18,5,25,0.02